Espace membre
ImprimablePdf
Luxembourg, 15/04/2012, LUX - DKV Urban Trail Luxembourg
Liste des rapports > Traces de Vauban (13km) - Classement
Recherche: Page: [1]
180 Entrées
 
Visualisez vos photos fournies par Sportonline foto en cliquant ici !
Les réclamations ne sont plus acceptées, les résultats sont considérés comme définitifs.
RangNrNomAgeIOCTempsTkmMoy.ScrLocalité
1.1888FHOFFMANN ISABELLE28LUX1:00:314:40 12.8952
2.129FVENANDET JULIETTE34FRA1:06:485:09 11.68157
3.2235FMARCISZEWSKA MALGORZATA27POL1:07:195:11 11.59166
4.1709FWISSLER CAROLE37LUX1:07:215:11 11.58167
5.1550FJACOBY YASMINE32LUX1:08:375:17 11.37194
6.1603FBEAUFILS DELPHINE25FRA1:08:495:18 11.34196
7.2011FHANNAH FLANDRIN-JONES26GBR1:08:505:18 11.33198
8.1093FKIEFFER CAROLE29LUX1:09:455:22 11.18220
9.1943FWALTER PAULINE28FRA1:09:505:23 11.17224
10.131FZAVRELOVA KRISTYNA35FRA1:11:215:30 10.93254
11.2111FLAUER JULIE18LUX1:11:505:32 10.86268
12.360FKINN BETTY26LUX1:12:295:35 10.76283
13.1500FMEDERNACH SIMONE29LUX1:12:515:37 10.71295
14.1325FHOFFMANN DANIELLE29LUX1:12:525:37 10.70296
15.50922FCOLARELLI MAILYS28LUX1:13:105:38 10.66306
16.2203FCENALMOR CARLOTA36ESP1:13:255:39 10.63318
17.1794FMORZYK AGNIESZKA34POL1:15:115:47 10.38374
18.1702FLIMPACH JESSICA24BEL1:15:205:48 10.36379
19.1104FMAGERI CLAUDIA32ROM1:15:235:48 10.35380
20.2065FROSSY JETTI27LUX1:15:325:49 10.33385
21.1473FCHRETIEN SYLVIE35FRA1:15:585:51 10.27400
22.1633FWEBER VALÉRIE35LUX1:15:585:51 10.27401
23.1443FBOURKEL ELISABELTH29LUX1:16:375:54 10.18421
24.2140FMAVANDE MARIE30FRA1:16:535:55 10.15434
25.1856FGÉRARD LAURENCE30LUX1:17:185:57 10.09450
26.1219FJOAN MC DONNELL35IRE1:17:345:58 10.06454
27.2050FSALEH STEPHANIE27LB1:17:455:59 10.03462
28.50908FDE OLIVEIRA CATHY37LUX1:17:486:00 10.03467
29.1953FJAFFKE MELANIE36LUX1:18:226:02 9.95478
30.2120FGABZDILOVA MARIANNA29CSZ1:18:426:04 9.91487
31.1213FHERMES SOPHIE29LUX1:18:596:05 9.88494
32.1664FAKTAN LUTFIJE36FRA1:19:036:05 9.87499
33.1135FGUYOT AUDREY28FRA1:19:086:06 9.86500
34.1598FWAGNER NICOLE37LUX1:19:236:07 9.83508
35.1629FGOEDERT MARION38LUX1:19:286:07 9.82511
36.1083FKLIMOVA ANDREA33CSZ1:19:356:08 9.80518
37.1719FBRODÉN SARA34SE1:20:026:10 9.75539
38.1915FFELEGYHAZI - BARTHA BOGLARKA35HU1:20:056:10 9.74546
39.1614FBARTHEL NADINE35LUX1:20:146:11 9.72548
40.1935FDELFERIER CORALIE30BEL1:20:216:11 9.71551
41.1417FWEIMERSKIRCH MARTINE29LUX1:20:256:12 9.70554
42.2292FDELATULLAYE RAFAELLE29FRA1:20:426:13 9.67565
43.1575FMOLNAR ZSOKA35HU1:21:036:15 9.63571
44.1172FDELPECH SALOMÉ24FRA1:21:036:15 9.62572
45.1814FDONATI CHRISTINE34FRA1:21:066:15 9.62575
46.1569FFABER MIREILLE31LUX1:21:216:16 9.59588
47.1058FFOUARGE MYRIAM36LUX1:21:346:17 9.56592
48.1646FBYRNE FIONA29IRE1:21:556:19 9.52601
49.1728FLEITE SOFIA30POR1:22:356:22 9.45612
50.1991FCUNHA LIGIA28POR1:22:356:22 9.45614
51.1421FFELTEN SYLVIE35LUX1:22:396:22 9.44618
52.1356FSANDRA BIBELRICH38LUX1:22:526:23 9.41621
53.1717FBRIMEYER NADINE39LUX1:23:016:24 9.40629
54.1881FFERNANDES CATIA24LUX1:23:266:26 9.35638
55.1616FLONGREE AXELLE38BEL1:23:286:26 9.35640
56.1166FURBING ANJA31LUX1:23:426:27 9.32654
57.1182FBODIG LAETITIA38FRA1:23:496:27 9.31655
58.1343FREIFF NATHALIE33LUX1:23:566:28 9.29664
59.2306FHAAG CLAIRE18LUX1:24:266:30 9.24673
60.1746FDEMOLDER VIRGINIE39BEL1:24:546:32 9.19692
61.2282FJOHANNA BORJESSON22SE1:25:016:33 9.18695
62.2078FBIDOLI STEFANIA31LUX1:25:076:33 9.17697
63.1455FSTERN JUDIT32LUX1:25:326:35 9.12701
64.1800FHERDMAN-SMITH FIONA34GBR1:25:356:35 9.11705
65.1433FMONFORT CHRISTINE38BEL1:25:426:36 9.10709
66.1357FCARVALHO MONICA36POR1:25:526:37 9.08714
67.2300FCONZEMIUS LINDA27LUX1:25:576:37 9.08717
68.2298FKAYSEN CHRISTINE27LUX1:25:586:37 9.08719
69.1162FMOUSEL EMMANUELLE27LUX1:25:596:37 9.07720
70.1754FGRENON HÉLÈNE29FRA1:26:046:38 9.06721
71.2150FUNGERSBOECK MARLIESE29AUT1:26:046:38 9.06722
72.1061FWIDONG CAROLINE35LUX1:26:356:40 9.01730
73.1014FVALET SABRINA34BEL1:26:496:41 8.99736
74.1950FDOM LIS38LUX1:26:526:41 8.98737
75.385FCZOSKE BRIGITTE37LUX1:26:576:42 8.97741
76.1066FFISTER EMILIE30FRA1:26:586:42 8.97744
77.1387FJI SHIYA31LUX1:27:396:45 8.90766
78.1741FPHILIPPI MICHÈLE32LUX1:27:426:45 8.89767
79.365FCODEGA JENNY31ITA1:27:436:45 8.89768
80.1917FMALICKA MARTINA29CSZ1:27:546:46 8.87776
81.1484FMAYOT JENNIFER32FRA1:27:576:46 8.87777
82.1715FDE FILIPPIS LUCIA32ItA1:28:036:47 8.86783
83.1494FWEBER NATHALIE34LUX1:28:066:47 8.86784
84.1713FCLAUDIA ZACCARIA35ItA1:28:076:47 8.85787
85.2212FKROEMMER CORINNE28LUX1:28:256:49 8.82793
86.1684FGOFFIN NANCY27LUX1:28:316:49 8.81797
87.1284FBIELL LIS29LUX1:28:336:49 8.81798
88.1234FSCHILT CARINE20LUX1:28:356:49 8.81802
89.1744FHEINTZ ANNE25LUX1:28:456:50 8.79807
90.1010FHAUSBELRGER SANDRINE36FRA1:29:166:52 8.74815
91.2261FPRUSZKO PAULINA30POL1:29:266:53 8.72819
92.2000FCOLLAZO AGEITOS ANTIA28ESP1:30:026:56 8.66828
93.1493FBOUILLE-WOLFF PATRICIA39LUX1:30:046:56 8.66829
94.2324FDEWULF AMMELOKE39BEL1:30:076:56 8.66834
95.1735FFERNANDES JULIANA28POR1:30:126:57 8.65835
96.1129FMADSEN IRENE33DAN1:30:286:58 8.62840
97.1447FBELRRAHOU NEÏLA30FRA1:30:426:59 8.60845
98.2073FLUTGEN ANNE31LUX1:30:466:59 8.59846
99.1666FREISCH DÉSIRÉE30LUX1:31:007:00 8.57852
100.1501FRASQUÉ NADINE32LUX1:31:047:01 8.57858
101.50912FKARDJOC 26LUX1:31:167:02 8.55874
102.2127FKEISER LYNN24LUX1:31:177:02 8.55875
103.1583FJOVANOVIC DARINKA27LUX1:31:307:03 8.53880
104.1096FBOCLINVILLE SANDRA37BEL1:31:317:03 8.52882
105.1748FREICHERT VIVIANE38LUX1:32:467:09 8.41899
106.1295FSANDBELRG SHERI33USA1:32:467:09 8.41900
107.1163FLE CLOIREC GABRIELLE33FRA1:32:537:09 8.40905
108.2161FKUYLENSTIERNA AMELIE25SE1:33:007:10 8.39906
109.1708FRECH-KOHNEN MARIE-ANNE37LUX1:33:177:11 8.36911
110.1063FTHIEL MAREIKE32DEU1:33:187:11 8.36912
111.2162FEDWARDS POLLY27LUX1:33:197:11 8.36914
112.1171FDELPECH MARIE EVE29FRA1:33:257:12 8.35915
113.1089FMORBÉ CHRISTINE31LUX1:33:367:12 8.33917
114.1099FTEVERE CHRISTELE35FRA1:33:547:14 8.31923
115.1119FSACRÉ ANNE-SOPHIE35BEL1:33:547:14 8.31924
116.1649FSORCE JESSICA30ItA1:34:077:15 8.29927
117.1964FSORCE SILVIE35ItA1:34:077:15 8.29928
118.2103FMAJERUS DIANE32LUX1:34:247:16 8.26935
119.2032FWEYLAND LYNE35LUX1:34:287:16 8.26936
120.1120FMATINEZ MARTIN IRIA27ESP1:34:387:17 8.24939
121.1391FBONNEFOY JENNIFER28LUX1:35:277:21 8.17958
122.1333FHEIRENS MYRIAM35LUX1:35:357:22 8.16960
123.1349FTOSSENG VALERIA39LUX1:35:357:22 8.16961
124.50909FOOMS MAGALIE32LUX1:35:497:23 8.14965
125.1132FFRIEDERICH RONNIE39LUX1:36:417:27 8.07976
126.1468FROBELDAT CÉLINE27FRA1:36:427:27 8.07978
127.50910FPRITCHARD HELEDD27GBR1:36:447:27 8.06979
128.1946FKIRSCH CYNTHIA21LUX1:36:527:28 8.05982
129.1945FGRETSCH CARINE25LUX1:36:537:28 8.05983
130.1088FSTEIN SARAH26LUX1:37:227:30 8.01986
131.1758FPARSONS SHONA33IRE1:37:237:30 8.01989
132.1585FJOVANOVIC KSENIJA22LUX1:37:397:31 7.99996
133.4159FPASQUALONI NARMINA26LUX1:37:517:32 7.971000
134.2232FPRZYBYL PETRA30LUX1:37:517:32 7.971001
135.2094FSALADIN STEPHANIE28BEL1:38:037:33 7.961007
136.2138FRETTER CAROLE30LUX1:38:057:33 7.951009
137.1542FKONTZ DANIELLE33LUX1:38:167:34 7.941010
138.1555FENGEL CHRISTINE27LUX1:38:347:35 7.911017
139.1651FSTEFANIAK KAROLINA32POL1:40:007:42 7.801027
140.2084FPARRIERE MURIEL35BEL1:40:177:43 7.781031
141.1314FSEIL CHRISTEL32LUX1:40:197:43 7.781032
142.1475FZIGER ELISABELTH33LUX1:40:437:45 7.751039
143.1003FCABIROL SANDRINE28LUX1:41:417:50 7.671045
144.1397FJANECO SYLVIA36LUX1:42:117:52 7.631053
145.2220FRIES CAROLINE28LUX1:42:227:53 7.621054
146.2042FHAEBEL SANDRA25DEU1:42:357:54 7.601055
147.1479FWATTIAUX ISABELLLE38BEL1:43:147:57 7.561063
148.1776FDOMP-SANDU OCTAVIA38LUX1:43:257:58 7.541064
149.1821FBRAGA TERESA27POR1:43:457:59 7.521065
150.1827FCORREIA MARTA31POR1:43:457:59 7.521066
151.1002FFAUST PATRICIA36LUX1:43:508:00 7.511067
152.50906FELIZA SALICKA29POL1:44:088:01 7.491069
153.1367FBART NATHALIE34LUX1:44:248:02 7.471070
154.1677FVENA ASHLEY31LUX1:44:438:04 7.451074
155.2041FKREMER LAURENCE25LUX1:45:568:09 7.361084
156.1829FSARAIVA MARIANA26POR1:46:308:12 7.321089
157.1625FHELLERS ZOE18LUX1:47:168:16 7.271095
158.1596FELSEN LISA21LUX1:47:178:16 7.271098
159.1694FKRACK CATHERINE21LUX1:47:178:16 7.271099
160.2069FDINESCU MELANIA26ROM1:47:378:17 7.251103
161.1938FGOYZUETA LUCIE32FRA1:47:448:18 7.241107
162.1594FMEHRING CLAUDINE39LUX1:48:298:21 7.191112
163.1822FSIMONIAN ELODIE30FRA1:53:238:44 6.881118
164.1831FFONSECA SILVIA32CO1:53:238:44 6.881119
165.1796FZIMMER-BERTHOLET SANDRA35LUX1:53:248:44 6.881120
166.1825FSABIC SÉVERINE36BEL1:57:409:04 6.631125
167.1858FDE MARCO SANDRA38LUX1:58:529:09 6.561128
168.1029FFAUST PASCALE31LUX1:58:569:09 6.561129
169.4129FJEANNIN ROXANE26FRA1:59:489:13 6.511130
170.2247FSVET JULIA30EE2:02:049:24 6.391131
171.2248FSPROGE VALERIE29LUX2:02:059:24 6.391132
172.1661FKOWALYK ANNA37POL2:03:069:29 6.341136
173.1471FZIGER ANNE-MARIE31LUX2:03:499:32 6.301138
174.1857FKARLSTEDT BRANDI39USA2:14:2410:21 5.801141
175.1378FISKRA SOPHIE29FRA2:15:1910:25 5.761142
176.1199FMOLINERO INMACULADA35ESP2:51:2113:11 4.551143
177.1228FGRANDJEAN ANNE-LISE34BEL3:01:3913:59 4.291144
DSQ1462FDA CRUZ MARISA22POR45:03
DNF1899FMISERINI SINDI36ItA
DNF2008FTHÈVES CLAIRE25LUX
DNF: abandon; DSQ: disqualifié; Vitesse en km/h